sat.trackr.live / text

‹ back to catalog

HULIANWANG DIGUI-74

NORAD 65306 · 2025-187B

PAYLOAD ACTIVE UNKNOWN

§ Identity

Operator
Country
PRC
Launch date
2025-08-25
Launch site
WSC
Launch vehicle
Mass (kg)
RCS (m²)

External: N2YO · Heavens-Above · Gunter

§ Orbital elements

Epoch: 2026-05-25T04:34:47.070912Z

Period
108.33 min
Inclination
50.0100°
Eccentricity
0.0000626
Mean motion
13.29320818 rev/d
Perigee alt
1,148.9 km
Apogee alt
1,149.8 km
Semi-major
7,527.5 km
B*
6.2559e-5
RAAN
288.2991°
Arg perigee
97.8919°
Mean anomaly
262.2024°
Rev number
3,664

§ Raw data

HULIANWANG DIGUI-741 65306U 25187B   26145.19082258 -.00000095  00000+0  62559-4 0  99912 65306  50.0100 288.2991 0000626  97.8919 262.2024 13.29320818 36648

JSON: /api/v1/satellites/65306 · /tle

For live sub-satellite position, see the globe view (requires WebGL).

§ Visibility from observer

Set your observer location to see the next 7 days of passes ≥ 10°. The values pass through the URL so the page stays shareable.

No JS? Fill the form by hand. The geolocation button needs JavaScript.